星链-32728 (STARLINK-32728)

导读

STARLINK-32728是美国于2025年2月11日发射的星链系列卫星。星链计划是太空探索技术公司(SpaceX)打造的低轨卫星星座,旨在为全球提供高速互联网服务。该卫星延续了星链星座部署节奏,进一步扩展星链的全球网络覆盖,提升星座整体服务能力,推动低轨互联网基础设施建设进程。

基本信息
目录编号:
62948
目录名称:
STARLINK-32728
国际标识:
2025-029A
轨道中心:
EARTH
卫星名称:
星链-32728
卫星全名:
星链-32728 (STARLINK-32728)
卫星状态:
在轨 (已飞行488 天)
发射日期:
2025-02-11 UTC
国别 :
美国 (US)
星等 :
--
轨道信息
数据来源 国际轨道数据 AOE轨道数据
星历时间 2026-06-13T13:40:37+0800
1天前
查看轨道信息
2026-06-11T06:00:00+0800
3天前
查看轨道信息
半长轴 6840.838km 6840.813km
偏心率 0.0001158 0.0001154
轨道倾角 53.158° 53.160°
近地点辐角 89.479° 73.636°
升交点赤经 146.001° 156.847°
平近点角 270.635° 64.772°
近地点 461.908km 461.886km
远地点 463.494km 463.466km
周期 93.848分钟 93.847分钟
每日圈数 15.34401 15.344092
详细信息
固有亮度:
5
最大亮度:
2.5
卫星平台:
Starlink V1.0
覆盖范围:
全球
运营商:
太空探索技术公司
运营商所在国:
美国
制造商(研发单位):
太空探索技术公司
制造商所在国:
美国
使用方式:
暂无
卫星简介
Starlink 计划是 SpaceX 推出的全球卫星互联网项目,通过发射低轨道卫星,为全球尤其是偏远地区提供高速、低延迟的互联网服务。自 2019 年起,Starlink 已部署数千颗卫星,旨在缩小全球数字鸿沟,推动互联网普及。该项目还为军事、航空等行业提供通信支持,带来广泛经济效益。
2D轨道图
3D轨道图
轨道高度分析图
轨道倾角分析图
轨道综合分析图
查看轨道综合分析图